EW8108 Weather Reports


Display with metric or nautical units.
time (UTC)temp
F
wind
direction
speed
MPH
gust
MPH
rain 1hr
in
rain 24hr
in
rain mn
in
humidity
%
barometer
mb
20190217180716 56 5 0.0 2.0 0.00 0.00 0.00 64 974.9
20190217175719 56 355 0.0 6.0 0.00 0.00 0.00 64 974.9
20190217174647 55 5 0.0 6.0 0.00 0.00 0.00 66 974.7
20190217173642 55 5 0.0 4.0 0.00 0.00 0.00 67 974.7
20190217172650 55 50 0.0 4.0 0.00 0.00 0.00 67 974.5
20190217171624 55 13 1.0 7.0 0.00 0.00 0.00 66 974.5
20190217170551 55 348 0.0 7.0 0.00 0.00 0.00 67 974.4
20190217165607 55 339 0.0 7.0 0.00 0.00 0.00 66 974.4
20190217164612 56 350 0.0 5.0 0.00 0.00 0.00 65 974.3
20190217163612 56 9 0.0 7.0 0.00 0.00 0.00 66 974.2
20190217162636 57 12 0.0 6.0 0.00 0.00 0.00 64 974.0
20190217161620 57 22 0.0 0.0 0.00 0.00 0.00 63 973.8
20190217160614 58 0 0.0 1.0 0.00 0.00 0.00 62 973.8
20190217155549 57 0 0.0 3.0 0.00 0.00 0.00 64 973.6
20190217154533 55 13 0.0 4.0 0.00 0.00 0.00 67 973.4
20190217153530 54 355 0.0 4.0 0.00 0.00 0.00 67 973.3
20190217152459 55 9 0.0 3.0 0.00 0.00 0.00 66 973.2
20190217151451 54 9 0.0 0.0 0.00 0.00 0.00 70 973.0
20190217150444 54 355 0.0 5.0 0.00 0.00 0.00 66 972.8
20190217145456 54 342 0.0 4.0 0.00 0.00 0.00 67 972.6
20190217144422 53 342 0.0 5.0 0.00 0.00 0.00 66 972.4
20190217143400 53 351 0.0 5.0 0.00 0.00 0.00 65 972.1
20190217142417 53 355 0.0 0.0 0.00 0.00 0.00 65 971.8
20190217141346 53 348 1.0 8.0 0.00 0.00 0.00 65 971.6
20190217140312 53 5 0.0 5.0 0.00 0.00 0.00 66 971.4
20190217135336 52 351 0.0 4.0 0.00 0.00 0.00 66 971.1
20190217134333 53 351 0.0 2.0 0.00 0.00 0.00 65 971.1
20190217133259 53 351 0.0 2.0 0.00 0.00 0.00 64 970.9
20190217132232 53 5 0.0 6.0 0.00 0.00 0.00 64 970.6
20190217131211 53 5 0.0 4.0 0.00 0.00 0.00 64 970.3
20190217130217 53 0 0.0 5.0 0.00 0.00 0.00 65 969.8
20190217125227 53 355 0.0 4.0 0.00 0.00 0.00 67 969.6
20190217124202 53 341 0.0 4.0 0.00 0.00 0.00 70 969.2
20190217123142 53 313 0.0 1.0 0.00 0.00 0.00 72 969.1
20190217122143 53 5 0.0 5.0 0.00 0.00 0.00 75 968.9
20190217121205 53 355 0.0 3.0 0.00 0.00 0.00 77 968.7
20190217120201 53 344 0.0 4.0 0.00 0.00 0.00 82 968.6
20190217115150 53 294 0.0 2.0 0.00 0.00 0.00 87 968.5
20190217114155 53 290 0.0 1.0 0.00 0.00 0.00 90 968.2
20190217113129 53 204 0.0 0.0 0.00 0.00 0.00 91 967.9
20190217112117 54 204 0.0 0.0 0.00 0.00 0.00 92 967.9
20190217111125 54 204 0.0 0.0 0.00 0.00 0.00 92 967.7
20190217110055 55 204 0.0 0.0 0.00 0.00 0.00 92 967.7
20190217105053 55 204 0.0 0.0 0.00 0.00 0.00 92 967.6
20190217104111 55 204 0.0 0.0 0.00 0.00 0.00 92 967.4
20190217103101 55 204 0.0 0.0 0.00 0.00 0.00 92 967.1
20190217102040 55 204 0.0 0.0 0.00 0.00 0.00 92 967.1
20190217101058 55 204 0.0 0.0 0.00 0.00 0.00 92 967.2
20190217100030 55 204 0.0 0.0 0.00 0.00 0.00 92 967.1
20190217095007 56 204 0.0 0.0 0.00 0.00 0.00 91 967.1
20190217094000 56 204 0.0 0.0 0.00 0.00 0.00 92 967.2
20190217093000 57 203 0.0 0.0 0.00 0.00 0.00 92 967.1
20190217091940 57 203 0.0 0.0 0.00 0.00 0.00 92 967.0
20190217090910 57 203 0.0 0.0 0.00 0.00 0.00 92 967.2
20190217085850 57 203 0.0 0.0 0.00 0.00 0.00 92 967.4
20190217084847 57 203 0.0 0.0 0.00 0.00 0.00 92 967.7
20190217083902 55 203 0.0 0.0 0.00 0.00 0.00 92 967.3
20190217082858 54 203 0.0 0.0 0.00 0.00 0.00 91 967.2
20190217081840 53 203 0.0 0.0 0.00 0.00 0.00 91 967.3
20190217080845 52 203 0.0 0.0 0.00 0.00 0.00 91 967.4
20190217075900 52 203 0.0 0.0 0.00 0.00 0.00 91 967.2
20190217074913 52 203 0.0 0.0 0.00 0.00 0.00 91 966.9
20190217073839 51 203 0.0 0.0 0.00 0.00 0.00 90 966.6
20190217072811 51 203 0.0 0.0 0.00 0.00 0.00 89 966.4
20190217071806 51 203 0.0 0.0 0.00 0.00 0.00 89 966.2
20190217070759 50 203 0.0 0.0 0.00 0.00 0.00 88 965.8
20190217065735 51 199 0.0 2.0 0.00 0.00 0.00 88 965.5
20190217064713 51 193 0.0 0.0 0.00 0.00 0.00 88 965.4
20190217063701 51 186 0.0 0.0 0.00 0.00 0.00 87 965.3
20190217062650 51 183 0.0 0.0 0.00 0.00 0.00 88 965.3
20190217061617 51 183 0.0 0.0 0.00 0.00 0.00 88 965.2
20190217060549 51 183 0.0 0.0 0.00 0.00 0.00 88 965.3
20190217055536 51 183 0.0 0.0 0.00 0.00 0.00 87 965.4
20190217054520 51 183 0.0 0.0 0.00 0.00 0.00 87 965.4
20190217053507 51 183 0.0 0.0 0.00 0.00 0.00 87 965.5
20190217052506 50 179 0.0 0.0 0.00 0.00 0.00 87 965.7
20190217051527 50 180 0.0 0.0 0.00 0.00 0.00 87 965.8
20190217050546 50 180 0.0 0.0 0.00 0.00 0.00 87 965.5
20190217045544 50 180 0.0 0.0 0.00 0.00 0.00 86 965.7
20190217044556 50 175 0.0 0.0 0.00 0.00 0.00 86 965.9
20190217043608 50 175 0.0 0.0 0.00 0.00 0.00 86 966.2
20190217042558 50 175 0.0 0.0 0.00 0.00 0.00 86 966.3
20190217041535 50 175 0.0 0.0 0.00 0.00 0.00 86 966.3
20190217040518 50 175 0.0 0.0 0.00 0.00 0.00 86 966.4
20190217035509 50 176 0.0 1.0 0.00 0.00 0.00 85 966.4
20190217034457 50 170 0.0 0.0 0.00 0.00 0.00 85 966.5
20190217033436 50 170 0.0 0.0 0.00 0.00 0.00 85 966.3
20190217032438 50 169 0.0 0.0 0.00 0.00 0.00 84 966.5
20190217031436 50 169 0.0 0.0 0.00 0.00 0.00 84 966.5
20190217030442 50 169 0.0 0.0 0.00 0.00 0.00 83 966.5
20190217025437 50 169 0.0 1.0 0.00 0.00 0.00 84 966.5
20190217024417 50 169 0.0 0.0 0.00 0.00 0.00 84 966.5
20190217023417 50 169 0.0 0.0 0.00 0.00 0.00 83 966.4
20190217022436 50 169 0.0 0.0 0.00 0.00 0.00 83 966.4
20190217021435 50 170 0.0 0.0 0.00 0.00 0.00 83 966.3
20190217020426 51 170 0.0 0.0 0.00 0.00 0.00 82 966.5
20190217015411 51 170 0.0 0.0 0.00 0.00 0.00 81 966.6
20190217014406 51 170 0.0 0.0 0.00 0.00 0.00 82 966.8
20190217013351 51 170 0.0 0.0 0.00 0.00 0.00 82 966.8
20190217012334 51 170 0.0 0.0 0.00 0.00 0.00 82 966.8
20190217011352 51 170 0.0 0.0 0.00 0.00 0.00 82 966.6
20190217010352 51 170 0.0 0.0 0.00 0.00 0.00 82 966.4
20190217005320 51 170 0.0 0.0 0.00 0.00 0.00 82 966.3
20190217004335 51 170 0.0 0.0 0.00 0.00 0.00 82 966.3
20190217003349 51 170 0.0 0.0 0.00 0.00 0.00 83 966.0
20190217002336 51 170 0.0 0.0 0.00 0.00 0.00 83 965.9
20190217001302 52 170 0.0 0.0 0.00 0.00 0.00 83 965.9
20190217000317 52 170 0.0 0.0 0.00 0.00 0.00 82 965.8
20190216235316 52 170 0.0 0.0 0.00 0.00 0.00 81 965.6
20190216234324 52 171 0.0 0.0 0.00 0.00 0.00 81 965.7
20190216233308 52 171 0.0 0.0 0.00 0.00 0.00 79 965.6
20190216232326 53 171 0.0 1.0 0.00 0.00 0.00 78 965.6
20190216231330 53 171 0.0 0.0 0.00 0.00 0.00 77 965.9
20190216230350 53 171 0.0 0.0 0.00 0.00 0.00 75 965.9
20190216225404 54 171 0.0 0.0 0.00 0.00 0.00 74 966.2
20190216224400 54 172 0.0 2.0 0.00 0.00 0.00 75 966.4
20190216223350 54 175 0.0 0.0 0.00 0.00 0.00 73 966.6
20190216222406 55 107 0.0 0.0 0.00 0.00 0.00 72 966.8
20190216221355 55 105 0.0 0.0 0.00 0.00 0.00 71 966.9
20190216220341 56 103 0.0 0.0 0.00 0.00 0.00 71 966.9
20190216215342 56 51 0.0 0.0 0.00 0.00 0.00 71 967.1
20190216214358 56 49 0.0 0.0 0.00 0.00 0.00 69 967.0
20190216213345 56 31 0.0 0.0 0.00 0.00 0.00 69 966.9
20190216212353 56 26 0.0 0.0 0.00 0.00 0.00 69 967.3
20190216211336 55 26 0.0 0.0 0.00 0.00 0.00 70 967.2
20190216210341 54 22 0.0 0.0 0.00 0.00 0.00 72 967.2
20190216205405 54 25 0.0 0.0 0.00 0.00 0.00 72 967.4
20190216204345 53 25 0.0 0.0 0.00 0.00 0.00 71 967.5
20190216203341 54 25 0.0 0.0 0.00 0.00 0.00 69 967.8
20190216202402 54 24 0.0 0.0 0.00 0.00 0.00 69 967.9
20190216201355 54 23 0.0 0.0 0.00 0.00 0.00 71 968.1
20190216200404 53 23 0.0 2.0 0.00 0.00 0.00 71 968.2
20190216195421 52 26 0.0 0.0 0.00 0.00 0.00 71 968.5
20190216194346 52 26 0.0 0.0 0.00 0.00 0.00 70 968.6
20190216193358 52 28 0.0 3.0 0.00 0.00 0.00 72 968.9
20190216192419 51 26 0.0 0.0 0.00 0.00 0.00 74 969.2
20190216191349 50 38 0.0 1.0 0.00 0.00 0.00 74 969.5
20190216190402 49 42 0.0 0.0 0.00 0.00 0.00 72 969.6
20190216185342 49 41 0.0 0.0 0.00 0.00 0.00 72 970.1
20190216184352 49 44 0.0 0.0 0.00 0.00 0.00 73 970.4
20190216183358 49 51 0.0 0.0 0.00 0.00 0.00 73 970.7
20190216182411 48 67 0.0 0.0 0.00 0.00 0.00 74 970.9
20190216181430 48 77 0.0 0.0 0.00 0.00 0.00 75 971.2